When you browse on this site, cookies collect data to enhance your experience and personalize the content and advertising you see.
Visit our Privacy Policy to learn more. By continuing to use the site, you agree to this use of cookies and data.
  • In Portugal
  • List of Countries
  • For 7 days
  • Water Temperature
  • Weather Map
  • Weather Widgets
  • user-avatar
    Login

    Hourly Weather Figueira da Foz

    Today, 28 February, Friday

    Time Temperature Precipitation Wind Pressure Humidity
    00:00 +10°C° 0 mm 1 mps 767 mmHg 92%
    01:00 +9°C° 0 mm 1 mps 767 mmHg 90%
    02:00 +9°C° 0 mm 1 mps 766 mmHg 88%
    03:00 +9°C° 0 mm 1 mps 766 mmHg 87%
    04:00 +9°C° 0 mm 1 mps 766 mmHg 86%
    05:00 +7°C° 0 mm 2 mps 766 mmHg 85%
    06:00 +8°C° 0 mm 2 mps 765 mmHg 79%
    07:00 +10°C° 0 mm 2 mps 765 mmHg 73%
    08:00 +12°C° 0 mm 1 mps 765 mmHg 67%
    09:00 +14°C° 0 mm 1 mps 764 mmHg 57%
    10:00 +18°C° 0 mm 1 mps 764 mmHg 47%
    11:00 +21°C° 0 mm 1 mps 764 mmHg 37%
    12:00 +21°C° 0 mm 1 mps 763 mmHg 39%
    13:00 +19°C° 0 mm 2 mps 762 mmHg 40%
    14:00 +19°C° 0 mm 3 mps 761 mmHg 42%
    15:00 +18°C° 0 mm 3 mps 761 mmHg 51%
    16:00 +16°C° 0 mm 3 mps 761 mmHg 61%
    17:00 +13°C° 0 mm 4 mps 760 mmHg 70%
    18:00 +12°C° 0 mm 4 mps 761 mmHg 77%
    19:00 +11°C° 0 mm 4 mps 761 mmHg 84%
    20:00 +10°C° 0 mm 4 mps 761 mmHg 91%
    21:00 +9°C° 0 mm 5 mps 761 mmHg 91%
    22:00 +9°C° 0 mm 5 mps 761 mmHg 92%
    23:00 +10°C° 0 mm 6 mps 760 mmHg 93%

    Tomorrow, 29 February, Saturday

    Time Temperature Precipitation Wind Pressure Humidity
    00:00 +10°C° 0 mm 7 mps 760 mmHg 91%
    01:00 +11°C° 0 mm 8 mps 759 mmHg 90%
    02:00 +12°C° 0 mm 9 mps 758 mmHg 88%
    03:00 +12°C° 0.6 mm 9 mps 758 mmHg 90%
    04:00 +13°C° 0.6 mm 8 mps 758 mmHg 91%
    05:00 +13°C° 0.6 mm 8 mps 758 mmHg 93%
    06:00 +14°C° 0.2 mm 7 mps 759 mmHg 91%
    07:00 +14°C° 0.2 mm 6 mps 759 mmHg 89%
    08:00 +14°C° 0.2 mm 5 mps 759 mmHg 87%
    09:00 +14°C° 0 mm 5 mps 760 mmHg 81%
    10:00 +15°C° 0 mm 5 mps 760 mmHg 75%
    11:00 +15°C° 0 mm 5 mps 761 mmHg 69%
    12:00 +15°C° 0.1 mm 5 mps 760 mmHg 69%
    13:00 +15°C° 0.1 mm 5 mps 760 mmHg 69%
    14:00 +14°C° 0.1 mm 5 mps 760 mmHg 69%
    15:00 +14°C° 0.1 mm 4 mps 760 mmHg 72%
    16:00 +13°C° 0.1 mm 4 mps 760 mmHg 76%
    17:00 +13°C° 0.1 mm 4 mps 760 mmHg 79%
    18:00 +12°C° 0.1 mm 4 mps 760 mmHg 81%
    19:00 +12°C° 0.1 mm 4 mps 761 mmHg 82%
    20:00 +12°C° 0.1 mm 4 mps 761 mmHg 84%
    21:00 +12°C° 0.1 mm 4 mps 761 mmHg 85%
    22:00 +12°C° 0.1 mm 4 mps 761 mmHg 86%
    23:00 +12°C° 0.1 mm 5 mps 761 mmHg 87%

    Day after tomorrow, 1 March, Sunday

    Time Temperature Precipitation Wind Pressure Humidity
    00:00 +12°C° 0.1 mm 5 mps 761 mmHg 87%
    01:00 +12°C° 0.1 mm 5 mps 761 mmHg 87%
    02:00 +12°C° 0.1 mm 5 mps 761 mmHg 88%
    03:00 +10°C° 0 mm 5 mps 760 mmHg 89%
    04:00 +10°C° 0 mm 6 mps 760 mmHg 90%
    05:00 +10°C° 0 mm 6 mps 760 mmHg 91%
    06:00 +11°C° 0 mm 6 mps 760 mmHg 90%
    07:00 +13°C° 0 mm 6 mps 760 mmHg 89%
    08:00 +12°C° 0 mm 7 mps 760 mmHg 87%
    09:00 +14°C° 0.7 mm 7 mps 760 mmHg 86%
    10:00 +15°C° 0.7 mm 8 mps 760 mmHg 85%
    11:00 +16°C° 0.7 mm 8 mps 760 mmHg 84%
    12:00 +16°C° 0.4 mm 8 mps 760 mmHg 85%
    13:00 +16°C° 0.4 mm 7 mps 759 mmHg 85%
    14:00 +16°C° 0.4 mm 6 mps 759 mmHg 85%
    15:00 +15°C° 0.8 mm 5 mps 758 mmHg 87%
    16:00 +14°C° 0.8 mm 5 mps 758 mmHg 89%
    17:00 +14°C° 0.8 mm 4 mps 757 mmHg 92%
    18:00 +14°C° 3.3 mm 6 mps 757 mmHg 93%
    19:00 +14°C° 3.3 mm 7 mps 757 mmHg 94%
    20:00 +13°C° 3.3 mm 9 mps 756 mmHg 95%
    21:00 +13°C° 0.6 mm 9 mps 756 mmHg 93%
    22:00 +13°C° 0.6 mm 10 mps 756 mmHg 92%
    23:00 +14°C° 0.6 mm 10 mps 756 mmHg 90%

    2 March, Monday

    Time Temperature Precipitation Wind Pressure Humidity
    00:00 +13°C° 0.4 mm 10 mps 755 mmHg 91%
    01:00 +13°C° 0.4 mm 9 mps 755 mmHg 91%
    02:00 +13°C° 0.4 mm 9 mps 755 mmHg 91%
    03:00 +13°C° 1 mm 8 mps 755 mmHg 93%
    04:00 +12°C° 1 mm 7 mps 755 mmHg 94%
    05:00 +13°C° 1 mm 6 mps 756 mmHg 95%
    06:00 +13°C° 0.3 mm 5 mps 756 mmHg 93%
    07:00 +13°C° 0.3 mm 4 mps 757 mmHg 92%
    08:00 +13°C° 0.3 mm 4 mps 757 mmHg 90%
    09:00 +14°C° 0 mm 5 mps 758 mmHg 84%
    10:00 +15°C° 0 mm 5 mps 758 mmHg 79%
    11:00 +16°C° 0 mm 6 mps 759 mmHg 73%
    12:00 +16°C° 0.1 mm 6 mps 759 mmHg 70%
    13:00 +15°C° 0.1 mm 7 mps 760 mmHg 68%
    14:00 +15°C° 0.1 mm 8 mps 760 mmHg 65%
    15:00 +14°C° 0 mm 7 mps 761 mmHg 69%
    16:00 +12°C° 0 mm 7 mps 761 mmHg 72%
    17:00 +11°C° 0 mm 6 mps 762 mmHg 75%
    18:00 +10°C° 0 mm 6 mps 762 mmHg 75%
    19:00 +10°C° 0 mm 5 mps 763 mmHg 75%
    20:00 +9°C° 0 mm 5 mps 764 mmHg 75%
    21:00 +8°C° 0 mm 4 mps 764 mmHg 76%
    22:00 +8°C° 0 mm 3 mps 764 mmHg 77%
    23:00 +8°C° 0 mm 2 mps 765 mmHg 78%

    3 March, Tuesday

    Time Temperature Precipitation Wind Pressure Humidity
    00:00 +7°C° 0 mm 2 mps 765 mmHg 79%
    01:00 +8°C° 0 mm 1 mps 765 mmHg 79%
    02:00 +8°C° 0 mm 1 mps 764 mmHg 80%
    03:00 +8°C° 0 mm 1 mps 765 mmHg 80%
    04:00 +7°C° 0 mm 2 mps 765 mmHg 79%
    05:00 +7°C° 0 mm 3 mps 765 mmHg 79%
    06:00 +7°C° 0 mm 4 mps 765 mmHg 76%
    07:00 +8°C° 0 mm 4 mps 765 mmHg 74%
    08:00 +10°C° 0 mm 5 mps 765 mmHg 71%
    09:00 +11°C° 0 mm 6 mps 765 mmHg 74%
    10:00 +13°C° 0 mm 6 mps 765 mmHg 78%
    11:00 +14°C° 0 mm 7 mps 764 mmHg 81%
    12:00 +14°C° 0.1 mm 7 mps 764 mmHg 84%
    13:00 +15°C° 0.1 mm 7 mps 764 mmHg 88%
    14:00 +15°C° 0.1 mm 7 mps 764 mmHg 91%
    15:00 +15°C° 0.1 mm 6 mps 763 mmHg 92%
    16:00 +15°C° 0.1 mm 5 mps 763 mmHg 93%
    17:00 +15°C° 0.1 mm 4 mps 763 mmHg 94%
    18:00 +15°C° 0.1 mm 4 mps 763 mmHg 95%
    19:00 +15°C° 0.1 mm 4 mps 763 mmHg 95%
    20:00 +14°C° 0.1 mm 4 mps 764 mmHg 96%
    21:00 +14°C° 0.1 mm 4 mps 764 mmHg 96%
    22:00 +14°C° 0.1 mm 4 mps 763 mmHg 95%
    23:00 +14°C° 0.1 mm 5 mps 763 mmHg 95%

    4 March, Wednesday

    Time Temperature Precipitation Wind Pressure Humidity
    00:00 +14°C° 0.1 mm 4 mps 763 mmHg 93%
    01:00 +14°C° 0.1 mm 4 mps 763 mmHg 92%
    02:00 +14°C° 0.1 mm 4 mps 763 mmHg 91%
    03:00 +14°C° 0 mm 4 mps 762 mmHg 91%
    04:00 +13°C° 0 mm 4 mps 762 mmHg 91%
    05:00 +13°C° 0 mm 4 mps 762 mmHg 92%
    06:00 +14°C° 0 mm 4 mps 762 mmHg 89%
    07:00 +14°C° 0 mm 5 mps 762 mmHg 87%
    08:00 +15°C° 0 mm 6 mps 762 mmHg 85%
    09:00 +15°C° 0.1 mm 6 mps 762 mmHg 84%
    10:00 +15°C° 0.1 mm 7 mps 762 mmHg 83%
    11:00 +16°C° 0.1 mm 8 mps 761 mmHg 82%
    12:00 +16°C° 0.2 mm 8 mps 761 mmHg 83%
    13:00 +16°C° 0.2 mm 8 mps 760 mmHg 84%
    14:00 +16°C° 0.2 mm 9 mps 760 mmHg 84%
    15:00 +15°C° 0.9 mm 8 mps 760 mmHg 87%
    16:00 +13°C° 0.9 mm 8 mps 760 mmHg 90%
    17:00 +12°C° 0.9 mm 7 mps 760 mmHg 92%
    18:00 +12°C° 0.2 mm 7 mps 760 mmHg 90%
    19:00 +11°C° 0.2 mm 7 mps 761 mmHg 88%
    20:00 +11°C° 0.2 mm 7 mps 761 mmHg 86%
    21:00 +11°C° 0.1 mm 7 mps 762 mmHg 85%
    22:00 +11°C° 0.1 mm 7 mps 762 mmHg 84%
    23:00 +11°C° 0.1 mm 8 mps 762 mmHg 83%
    Show more